CAPE
0 0 37 723 376 377 86 184 43 42 17 35 62 98 2 21 135 0 477 554 531 903 1180 1623 2122 2299 1940 2041 2196 2262 2262 2219 2288 2236 2245 1949 1874 1706 1714 1714 1644 1561 1404 1334 1306 1103 1194 1442 1674
0 21 772 527 227 143 64 57 12 1 13 31 0 1 5 7 13 204 285 446 472 705 878 1389 2227 2388 1751 2100 2141 2504 2386 2372 2385 2211 2199 2247 2238 1973 1941 1745 1660 1530 1444 1375 1310 1272 1264 1299 1515
7 682 316 374 190 61 16 15 5 14 105 205 46 0 0 21 43 228 137 262 498 773 1044 1255 1979 1949 1875 2237 2602 2141 2225 2248 1828 2148 2055 2205 2124 2111 1755 1700 1730 1796 1436 1382 1248 1170 1199 1275 1215
215 594 655 426 220 37 10 0 14 203 12 0 0 29 2 21 144 206 340 496 802 933 1312 1999 1512 1515 1830 2000 2474 2298 2038 1944 1845 1810 1960 2177 2139 1854 1688 1543 1396 1386 1072 905 762 1209 974 1048 1182
144 390 280 200 130 26 1 27 249 253 134 3 0 0 11 7 92 255 390 476 292 467 975 1370 2042 2145 1542 1808 2026 2211 2341 2082 2036 1992 1974 1849 1678 1480 1289 1121 978 789 767 756 1038 822 1189 898 1281
387 144 189 123 74 27 29 146 109 267 89 0 11 0 0 0 65 115 425 360 237 371 926 1074 1835 2056 1496 1706 1984 1679 1717 1738 1713 1661 1584 1397 1193 978 915 1067 1183 1244 1399 1256 833 266 613 275 1066
423 81 128 155 46 20 98 94 109 69 93 2 0 0 0 0 0 2 318 194 408 331 560 926 1106 1255 1109 1444 1608 1790 1723 1404 1606 1456 1505 1401 1287 1449 1499 1665 1616 1505 1678 1383 314 458 446 284 788
267 358 100 163 189 136 36 15 91 66 9 0 0 0 0 0 0 0 0 0 0 72 345 447 556 557 788 960 1390 1580 1933 1703 1374 1354 1373 1363 1607 1625 1571 1642 1373 1811 2411 2280 1722 971 809 534 987
216 194 29 12 355 331 240 41 0 134 4 0 0 0 0 0 0 0 0 0 0 132 480 270 444 428 404 389 824 1761 1593 1457 1389 1467 1493 2016 1293 1313 1472 1270 2260 2320 2328 1976 1642 1328 1256 1608 1599
57 106 11 46 227 266 240 62 160 263 162 0 0 0 0 0 0 0 0 0 0 227 123 109 265 295 160 159 527 846 1174 1186 511 0 769 1446 1250 1031 1132 2580 2804 2040 2022 1903 2025 1620 1343 1531 1037
68 92 60 2 231 211 180 149 120 346 231 0 0 0 0 0 0 0 0 0 0 6 0 0 4 60 46 548 598 1134 1169 1067 0 108 347 718 976 566 1065 408 0 0 55 543 1963 2097 1233 991 691
60 63 6 57 231 218 367 185 193 154 179 0 0 0 0 0 0 0 0 0 0 0 0 0 43 62 315 892 1177 1171 994 1264 674 244 778 662 1 393 495 14 0 0 380 0 320 1419 1505 1172 1346
91 35 44 250 244 177 478 260 377 311 177 0 0 0 0 0 0 0 0 0 0 0 0 0 88 221 418 594 397 808 1070 1053 145 10 480 575 632 614 167 0 0 377 785 36 287 879 1681 937 1364
45 26 42 164 18 12 206 131 73 332 72 0 0 0 0 0 0 0 0 0 0 0 51 196 566 711 498 1094 946 535 340 1099 30 0 229 1073 1093 1340 80 103 293 838 563 742 912 1006 30 92 786
35 56 77 75 64 1 23 10 70 6 127 5 0 0 0 0 0 0 0 0 0 0 0 595 535 1271 676 957 525 755 863 1325 1293 1513 1467 2133 1941 2162 2445 485 841 689 747 754 1268 953 666 718 936
0 155 82 34 263 60 20 41 59 1 74 54 0 0 0 0 0 0 0 0 0 0 134 288 448 1036 629 673 869 1137 721 929 1150 1408 1504 1715 1144 1595 2236 392 573 723 1763 1321 376 1500 890 865 708
0 63 305 130 106 123 11 14 0 0 4 204 103 12 0 0 0 0 0 0 0 69 197 167 410 695 783 682 1249 1230 1345 1345 1300 1657 1394 1830 1669 2249 1069 824 1334 12 233 751 1087 1452 541 728 600
0 262 245 39 68 165 0 13 0 0 25 119 277 174 18 0 0 0 0 0 11 48 84 537 616 392 1059 982 1052 1434 712 1268 1141 1601 1535 1722 1342 2105 1367 1410 943 103 85 361 577 682 1184 1321 1239
0 0 178 70 161 56 13 0 0 21 25 54 352 285 238 1 0 0 0 0 133 74 34 890 946 978 837 763 1383 319 337 1186 1818 1337 1020 1047 1003 2341 2788 1286 842 655 730 687 595 770 88 39 429
0 0 176 79 117 10 3 26 39 6 43 180 144 364 358 36 0 0 0 0 8 103 26 1115 1001 1564 606 1141 1062 592 605 1364 1169 1036 743 1054 1558 1953 2161 1847 1851 1306 1574 62 5 24 215 0 4
0 0 144 180 190 69 62 26 75 13 136 391 228 257 522 168 7 7 0 0 0 137 90 1124 1193 1427 1199 1049 1281 1740 1855 1223 1191 1176 809 1196 1560 1879 2002 2423 2308 2150 1280 486 150 48 0 0 0
0 0 27 71 27 59 109 77 174 59 45 617 147 33 422 324 48 30 0 0 0 171 293 1078 1052 1022 995 1599 1215 1125 1261 1079 899 885 963 1160 1552 2393 2630 2276 1872 1821 878 140 47 11 303 0 0
0 0 0 43 0 0 144 34 198 116 43 184 410 268 510 427 115 50 19 0 0 119 422 1082 1498 1189 433 1465 2011 1652 2225 917 1434 1399 1267 1256 1476 1763 2295 2402 2440 1880 1399 1268 705 142 0 0 0
0 0 0 4 0 0 1 35 16 205 284 219 332 716 776 526 300 149 88 6 0 15 415 998 1744 1436 944 1396 1856 2135 1028 1933 1474 1561 1648 1695 1512 1791 2241 2612 2506 2429 1950 1288 868 449 6 0 0
0 0 0 1 1 2 20 0 150 361 347 129 19 919 961 783 552 374 184 244 11 0 145 957 1249 1740 1313 1603 1955 1854 1403 1993 1754 1384 1813 1495 1259 1603 2514 2143 2746 2626 2616 1726 1695 1010 613 474 0
0 0 0 17 6 28 9 5 54 147 70 106 85 303 947 928 748 520 407 442 261 1 0 700 851 1803 1339 1823 1716 1928 2443 2423 2160 1716 1137 1308 1328 1506 2549 2660 2861 3019 2860 2385 2038 1147 983 638 140
0 0 0 0 0 39 27 3 157 105 55 234 393 122 799 976 906 686 674 550 409 69 2 265 730 1210 1451 1834 1440 1888 2179 2034 1893 2051 1508 2114 2319 1805 2602 2842 2593 3048 2902 2644 2575 2361 1567 804 1119
0 0 0 4 4 29 3 10 41 55 2 27 84 291 782 586 663 931 793 714 560 397 36 109 815 939 1578 1540 1490 1709 1648 2245 2102 2746 1679 1322 2346 2458 2560 2845 2841 2811 2954 2700 2714 2792 2200 1354 1446
0 0 0 0 0 0 0 0 1 0 0 0 6 282 239 32 10 332 979 904 693 569 150 198 1056 1077 1615 1228 1681 1624 1474 1711 1945 2082 2775 2658 1467 2644 2585 2467 2533 2653 2961 2920 2897 2612 2987 2137 2099
0 0 0 0 0 0 0 0 12 0 0 0 0 0 0 11 293 791 904 999 884 687 693 271 1309 1418 1629 1516 1590 1622 1889 1397 1561 1842 2025 3165 1889 2774 2420 2332 2302 2963 2688 2969 3045 2711 2906 2713 2645
CIN
-0 -0 -118 -2 -0 -15 -57 -15 -16 -7 -22 -63 -97 -125 -74 -154 -75 -0 -37 -44 -68 -27 -6 -0 -0 -0 -0 -0 -0 -0 -0 -0 -0 -0 -0 -0 -0 -0 -0 -0 -0 -0 -0 -3 -2 -3 -0 -0 -0
-0 -96 -7 -4 -26 -18 -21 -32 -30 -19 -29 -99 -0 -25 -114 -162 -178 -99 -54 -48 -71 -46 -22 -3 -0 -0 -0 -0 -0 -0 -0 -0 -0 -0 -0 -0 -0 -0 -0 -0 -0 -0 -0 -0 -2 -5 -4 -0 -0
-134 -4 -23 -7 -48 -40 -13 -16 -53 -32 -27 -52 -110 -0 -0 -131 -77 -85 -63 -64 -58 -46 -24 -3 -0 -0 -0 -0 -0 -0 -0 -0 -0 -0 -0 -0 -0 -0 -0 -0 -0 -0 -2 -0 -1 -3 -9 -4 -15
-64 -11 -8 -24 -45 -8 -10 -1 -26 -17 -45 -0 -0 -119 -54 -146 -70 -53 -43 -42 -36 -22 -15 -0 -0 -0 -0 -0 -0 -0 -0 -0 -0 -0 -0 -0 -0 -0 -0 -0 -0 -0 -3 -9 -13 -0 -15 -16 -31
-84 -15 -6 -58 -89 -4 -7 -12 -8 -15 -57 -52 -0 -0 -128 -178 -78 -39 -50 -45 -105 -65 -27 -1 -0 -0 -0 -0 -0 -0 -0 -0 -0 -0 -0 -3 -7 -7 -4 -10 -17 -17 -17 -16 -2 -8 -0 -17 -26
-30 -57 -24 -43 -56 -4 -13 -31 -22 -36 -84 -0 -147 -0 -0 -0 -93 -82 -57 -73 -106 -96 -23 -3 -0 -0 -0 -0 -0 -1 -17 -3 -3 -12 -18 -30 -38 -47 -34 -28 -19 -10 -1 -1 -6 -20 -4 -67 -35
-46 -64 -25 -71 -7 -25 -21 -26 -33 -51 -85 -26 -0 -0 -0 -0 -0 -23 -70 -106 -85 -91 -63 -16 -4 -1 -15 -7 -5 -9 -22 -19 -16 -22 -18 -28 -28 -22 -16 -12 -19 -24 -4 -2 -29 -12 -13 -76 -44
-85 -45 -1 -50 -13 -14 -23 -64 -41 -27 -87 -0 -0 -0 -0 -0 -0 -12 -1 -0 -0 -126 -83 -74 -57 -69 -61 -50 -25 -28 -14 -25 -27 -32 -23 -24 -18 -25 -34 -43 -58 -16 -0 -0 -2 -6 -17 -69 -50
-98 -53 -66 -85 -36 -23 -42 -35 -0 -11 -58 -3 -0 -0 -0 -0 -0 -0 -0 -0 -0 -94 -69 -92 -79 -100 -117 -122 -78 -32 -31 -38 -42 -42 -38 -33 -60 -61 -47 -80 -22 -8 -0 -14 -29 -52 -61 -49 -54
-159 -44 -162 -173 -50 -114 -21 -31 -18 -10 -16 -4 -0 -0 -0 -0 -0 -0 -0 -0 -0 -53 -81 -93 -92 -95 -136 -91 -96 -97 -55 -94 -253 -0 -169 -78 -95 -74 -26 -10 -13 -34 -8 -11 -34 -57 -67 -61 -103
-172 -81 -102 -75 -105 -69 -143 -54 -22 -18 -22 -0 -0 -0 -0 -0 -0 -0 -0 -0 -0 -24 -0 -0 -36 -108 -170 -47 -128 -86 -68 -140 -0 -179 -250 -147 -94 -156 -141 -183 -0 -0 -39 -179 -40 -41 -85 -86 -141
-122 -108 -73 -74 -103 -71 -96 -82 -32 -20 -64 -0 -0 -0 -0 -0 -0 -0 -0 -0 -0 -0 -0 -0 -113 -92 -47 -62 -69 -61 -57 -74 -244 -288 -155 -234 -318 -215 -153 -551 -0 -0 -247 -40 -238 -122 -88 -99 -97
-101 -29 -32 -52 -76 -61 -86 -98 -44 -98 -64 -0 -0 -0 -0 -0 -0 -0 -0 -0 -0 -0 -0 -0 -68 -92 -57 -62 -99 -65 -84 -79 -222 -54 -178 -190 -192 -108 -271 -0 -0 -343 -228 -463 -286 -207 -124 -161 -109
-32 -39 -41 -92 -167 -55 -128 -91 -138 -43 -103 -0 -0 -0 -0 -0 -0 -0 -0 -0 -0 -0 -116 -112 -53 -61 -69 -50 -79 -94 -98 -49 -125 -0 -234 -116 -140 -97 -380 -491 -440 -218 -294 -263 -227 -188 -141 -253 -143
-20 -34 -132 -121 -61 -29 -87 -124 -42 -114 -51 -20 -0 -0 -0 -0 -0 -0 -0 -0 -0 -0 -0 -57 -32 -28 -39 -51 -73 -85 -60 -33 -92 -70 -53 -59 -61 -74 -58 -285 -172 -193 -261 -237 -173 -253 -230 -163 -134
-0 -41 -48 -117 -81 -128 -53 -16 -41 -32 -124 -54 -0 -0 -0 -0 -0 -0 -0 -0 -0 -0 -97 -71 -32 -35 -50 -60 -53 -66 -74 -103 -70 -63 -55 -39 -46 -76 -72 -90 -78 -141 -73 -105 -117 -131 -147 -155 -111
-0 -20 -95 -190 -154 -218 -189 -26 -0 -0 -68 -23 -40 -25 -0 -0 -0 -0 -0 -0 -0 -155 -88 -96 -72 -38 -57 -78 -72 -66 -52 -49 -83 -77 -63 -51 -46 -51 -111 -43 -75 -206 -150 -114 -111 -101 -88 -87 -83
-0 -35 -52 -227 -183 -201 -0 -125 -0 -0 -17 -43 -42 -22 -50 -0 -0 -0 -0 -0 -34 -153 -133 -45 -58 -50 -58 -53 -84 -71 -33 -49 -67 -87 -84 -39 -49 -34 -53 -64 -116 -232 -235 -166 -153 -123 -98 -73 -84
-0 -0 -58 -176 -202 -244 -176 -0 -0 -251 -228 -177 -61 -68 -48 -15 -0 -0 -0 -0 -136 -160 -124 -33 -58 -74 -59 -66 -48 -67 -58 -48 -48 -75 -75 -51 -45 -30 -47 -76 -121 -162 -158 -167 -168 -147 -197 -235 -166
-0 -0 -14 -169 -237 -244 -285 -313 -339 -313 -224 -135 -216 -68 -73 -147 -0 -0 -0 -0 -41 -193 -194 -31 -48 -37 -61 -78 -73 -80 -73 -59 -82 -90 -113 -61 -46 -40 -56 -63 -84 -104 -111 -281 -385 -366 -223 -0 -222
-0 -0 -30 -26 -159 -207 -184 -260 -284 -229 -151 -183 -244 -69 -73 -111 -265 -308 -0 -0 -0 -203 -206 -61 -59 -43 -72 -77 -58 -51 -70 -71 -91 -95 -96 -59 -32 -43 -33 -33 -46 -63 -130 -209 -292 -351 -0 -0 -0
-0 -0 -10 -13 -72 -82 -152 -125 -157 -213 -248 -157 -336 -385 -64 -128 -203 -249 -0 -0 -0 -193 -153 -69 -74 -70 -61 -55 -48 -52 -45 -63 -97 -100 -111 -78 -34 -27 -29 -37 -46 -79 -201 -302 -414 -525 -306 -0 -0
-0 -0 -0 -8 -6 -0 -119 -59 -129 -182 -224 -283 -226 -244 -90 -102 -166 -215 -380 -0 -0 -226 -149 -69 -51 -46 -102 -62 -50 -45 -24 -56 -93 -87 -100 -79 -52 -43 -50 -36 -45 -79 -123 -153 -236 -395 -0 -0 -0
-0 -0 -0 -11 -14 -0 -19 -137 -102 -119 -132 -107 -166 -66 -70 -112 -166 -229 -214 -144 -0 -136 -166 -91 -54 -46 -78 -74 -62 -53 -38 -55 -82 -85 -76 -73 -63 -47 -32 -24 -47 -53 -92 -164 -253 -369 -163 -0 -0
-0 -0 -0 -4 -38 -13 -46 -0 -97 -100 -68 -181 -136 -44 -55 -106 -130 -212 -214 -225 -184 -0 -259 -144 -95 -37 -58 -55 -46 -49 -68 -62 -52 -97 -74 -88 -104 -80 -46 -34 -40 -53 -71 -153 -179 -291 -358 -399 -0
-0 -0 -0 -0 -43 -33 -60 -11 -62 -96 -194 -285 -152 -99 -51 -82 -116 -193 -238 -259 -255 -305 -0 -206 -178 -43 -67 -43 -51 -52 -72 -53 -44 -66 -98 -118 -123 -102 -76 -59 -36 -45 -62 -116 -165 -299 -334 -403 -516
-0 -0 -0 -0 -0 -27 -57 -10 -114 -80 -223 -163 -254 -281 -43 -29 -64 -156 -221 -271 -262 -436 -602 -342 -243 -120 -92 -42 -79 -43 -70 -55 -46 -38 -80 -66 -73 -94 -77 -73 -74 -56 -76 -102 -128 -156 -269 -397 -346
-0 -0 -0 -23 -10 -23 -15 -51 -24 -83 -26 -104 -312 -166 -77 -116 -62 -84 -213 -273 -301 -309 -526 -411 -281 -200 -110 -72 -73 -59 -75 -70 -55 -47 -57 -83 -69 -89 -87 -73 -69 -70 -75 -109 -117 -126 -203 -323 -319
-0 -0 -0 -0 -0 -0 -13 -0 -73 -6 -0 -0 -4 -77 -116 -126 -213 -151 -138 -224 -309 -275 -427 -414 -277 -220 -118 -126 -79 -70 -81 -89 -73 -67 -56 -59 -99 -57 -92 -89 -88 -83 -75 -85 -93 -141 -117 -220 -237
-0 -0 -0 -0 -0 -0 -0 -5 -105 -0 -0 -0 -0 -0 -0 -137 -155 -84 -63 -174 -237 -258 -278 -378 -242 -189 -150 -128 -91 -81 -78 -94 -97 -81 -84 -53 -93 -40 -81 -100 -102 -72 -96 -81 -87 -119 -123 -162 -186
Wind_Speed
9 9 4 1 1 3 3 4 3 16 16 20 18 16 15 12 5 8 13 17 18 14 9 9 12 13 14 14 14 14 14 14 13 13 13 14 13 13 12 13 12 13 13 13 13 13 13 14 13
10 9 2 1 1 3 2 2 16 16 16 22 22 19 17 14 13 19 15 18 17 13 9 8 12 13 14 14 14 13 14 14 14 13 12 14 13 12 12 11 11 11 10 11 11 11 12 14 13
3 8 1 1 4 4 5 14 14 10 16 16 10 12 8 15 11 7 16 18 17 14 12 11 13 13 13 12 14 13 13 13 13 12 13 13 12 12 12 11 10 9 8 9 10 10 11 12 12
3 2 1 2 6 7 11 14 12 19 18 18 17 14 14 15 8 12 19 18 17 15 13 12 14 14 14 13 12 13 12 11 12 11 11 11 11 10 9 9 7 8 8 9 8 10 10 12 10
1 0 0 2 4 5 14 12 16 14 16 18 17 14 9 16 21 19 18 17 17 13 10 9 14 13 13 13 12 12 10 10 10 9 8 8 8 7 7 6 5 5 6 7 9 9 12 12 10
3 1 1 2 12 8 12 16 15 21 21 19 22 17 12 12 18 17 19 19 17 15 10 10 13 13 13 13 11 11 9 10 9 7 7 6 7 7 6 6 5 5 6 7 7 6 10 11 10
5 3 4 10 9 11 16 15 14 14 19 12 16 17 9 10 9 11 18 18 18 14 11 7 7 10 13 11 10 9 8 8 6 5 5 4 5 5 4 3 3 5 6 6 5 7 8 10 11
6 2 8 5 5 6 8 6 9 9 15 21 22 7 12 11 11 15 16 18 17 14 12 10 7 6 6 6 9 7 6 5 4 3 2 3 5 6 7 6 4 2 5 8 6 7 9 12 12
10 5 3 6 7 2 10 11 2 3 17 15 9 19 13 14 12 13 12 10 12 12 12 10 8 7 7 6 7 7 7 5 3 1 4 4 3 5 5 4 4 5 5 7 10 9 10 12 13
3 3 7 7 12 11 9 10 9 8 11 18 21 17 15 16 9 13 11 7 7 15 12 11 9 7 8 7 6 5 5 3 3 3 4 3 3 3 3 6 12 11 8 5 7 9 7 7 2
5 5 11 15 24 12 10 8 7 9 4 20 24 20 16 15 8 12 12 8 6 15 10 11 8 9 8 5 4 2 2 3 1 5 6 7 7 6 2 3 3 4 6 3 1 1 2 2 3
2 7 12 15 12 7 9 15 5 8 4 23 22 19 17 15 11 10 13 10 9 8 10 10 9 7 4 4 4 4 3 3 3 4 5 5 7 10 2 4 3 3 1 1 3 2 4 5 5
5 5 4 12 17 12 9 18 12 11 9 20 21 18 16 13 13 9 12 12 8 8 10 10 8 7 5 4 4 2 4 3 4 5 8 5 4 8 3 4 1 3 2 3 5 4 5 3 6
11 7 9 21 15 10 13 5 20 7 11 20 20 15 14 11 12 10 12 10 8 11 14 10 7 6 6 4 5 4 4 4 5 3 3 8 5 6 9 7 4 2 4 4 4 4 8 5 4
4 6 15 23 11 10 17 6 11 14 13 18 17 14 13 10 11 10 11 11 10 12 12 9 9 7 6 7 5 4 9 7 5 5 5 5 3 1 4 9 7 6 6 4 2 6 0 2 1
5 3 5 11 22 9 5 4 14 8 13 18 15 13 13 9 11 10 12 11 10 13 11 9 9 8 6 3 3 2 4 4 5 4 5 6 2 0 2 4 4 5 3 5 4 5 3 4 3
7 6 5 3 9 10 14 10 20 8 3 9 16 14 12 9 9 10 12 13 10 14 11 9 10 7 7 4 3 3 4 4 4 4 4 3 5 6 4 4 4 5 4 4 3 3 3 3 1
6 9 1 6 3 16 16 8 23 19 5 5 17 14 13 13 12 13 14 14 13 14 10 7 10 8 6 4 3 3 4 4 4 4 4 5 4 5 5 5 6 5 5 4 4 5 4 4 2
14 10 12 13 15 16 15 16 21 17 11 2 12 15 12 14 14 14 14 15 16 14 10 7 12 8 4 2 1 1 1 3 6 5 7 6 4 4 5 4 6 4 5 3 4 3 4 5 4
16 13 8 7 21 8 12 15 11 11 6 3 9 15 16 14 16 15 14 16 18 16 12 8 12 9 5 3 2 1 3 2 4 4 5 6 5 4 7 6 5 6 4 5 4 4 2 2 3
16 11 10 9 16 7 12 12 9 4 3 4 20 14 18 19 18 17 17 17 17 16 13 10 11 11 7 6 1 1 4 5 3 3 3 3 4 4 7 6 5 5 5 4 3 3 4 2 3
13 17 14 7 15 6 14 6 6 11 16 20 22 17 18 20 18 16 16 17 18 16 14 9 11 9 8 6 3 5 7 6 3 4 3 3 3 4 6 6 7 6 4 5 3 2 1 2 2
17 17 9 18 9 7 10 8 6 9 15 25 30 25 22 20 20 21 19 18 16 17 15 13 10 8 7 5 5 4 3 4 4 4 7 4 3 3 6 7 6 6 4 4 5 3 3 2 3
17 16 13 8 5 3 13 14 6 9 17 22 27 29 24 21 21 21 19 19 17 17 16 15 13 11 8 7 5 5 6 3 5 6 5 4 3 2 5 6 6 6 6 5 3 3 3 3 2
15 8 4 4 3 6 11 5 11 22 20 6 6 23 23 23 22 21 21 18 17 21 18 16 16 14 10 8 6 6 6 5 7 6 6 6 4 3 5 5 6 5 6 6 5 4 2 1 1
12 9 6 6 3 8 9 6 8 15 19 9 20 17 23 24 22 25 26 23 21 23 21 19 18 15 13 8 7 7 4 3 4 6 5 5 6 5 6 6 6 7 7 6 6 4 3 3 2
20 13 10 6 8 2 5 8 9 11 12 11 18 6 17 18 22 25 26 24 23 21 23 21 20 16 16 11 8 7 5 5 4 6 4 5 4 8 7 7 7 7 7 7 7 4 5 5 4
9 6 7 3 8 6 7 3 6 5 2 12 20 24 22 24 21 22 23 23 22 21 22 21 21 20 17 14 11 8 7 6 5 3 5 4 4 7 7 7 7 7 7 7 6 4 5 6 4
15 11 6 6 3 6 3 7 13 8 3 6 5 8 7 0 7 20 22 22 23 20 20 21 21 20 17 17 13 11 10 7 6 5 5 6 5 6 10 7 7 7 7 7 6 6 6 7 6
20 13 10 7 10 3 6 7 3 15 17 6 7 15 5 7 8 7 19 22 21 21 18 20 19 19 17 17 14 14 12 10 8 7 7 6 6 6 7 8 7 7 7 7 7 7 6 7 7
Wind_Direction
160 177 209 163 149 253 243 148 86 82 69 73 68 76 78 35 73 136 124 124 124 120 124 118 111 111 107 109 108 107 106 101 104 105 105 104 106 110 111 107 106 102 103 100 99 99 97 93 95
182 180 187 200 199 208 189 135 87 91 89 92 84 82 64 73 87 120 124 125 124 129 114 110 117 114 113 113 112 111 110 105 105 102 108 109 112 113 117 116 109 104 103 101 104 101 99 100 100
187 167 108 124 265 174 148 106 100 111 103 103 77 76 72 122 112 93 128 130 122 113 114 126 122 116 116 111 109 106 105 106 109 113 113 115 117 122 120 121 119 111 114 113 110 109 109 105 102
208 67 37 233 237 148 110 108 125 100 99 102 110 77 83 97 89 127 124 119 111 114 117 124 122 121 115 117 109 112 109 113 115 118 119 121 122 122 122 116 120 115 111 112 118 114 111 104 109
282 216 284 251 285 123 108 115 93 97 86 93 96 113 100 98 127 133 124 117 116 115 118 118 121 123 121 121 117 114 122 122 117 117 123 125 124 123 118 124 127 114 110 113 117 116 120 113 118
97 13 80 235 222 115 118 108 97 88 100 103 100 111 108 128 140 141 133 124 121 124 121 121 124 126 126 125 121 124 135 128 127 138 142 150 151 153 149 154 150 144 136 131 120 127 130 125 133
95 18 323 323 113 120 120 120 111 119 125 120 116 116 143 147 157 124 134 122 125 130 122 128 126 137 129 134 135 137 144 130 144 157 166 182 183 181 163 154 153 146 145 136 138 137 142 141 143
108 107 331 316 56 80 76 78 131 126 134 132 139 136 159 156 130 110 125 129 129 134 140 141 144 142 138 144 152 162 148 151 144 188 199 238 245 218 185 166 175 136 134 133 135 138 140 143 149
164 125 136 326 339 347 120 122 132 86 131 155 191 138 138 130 127 110 109 125 131 140 142 146 163 162 154 160 176 183 174 168 174 300 246 256 258 257 230 179 144 89 63 122 130 141 150 155 159
127 156 166 132 294 268 127 132 129 149 128 110 118 126 137 130 141 123 119 131 143 145 152 156 166 161 163 170 166 184 181 149 157 128 347 223 260 37 62 57 60 57 75 99 153 142 157 152 154
151 216 134 187 202 251 302 151 179 95 91 138 137 142 141 142 148 138 142 161 156 155 154 154 159 158 176 143 164 156 165 169 13 61 32 59 82 36 36 31 26 350 39 10 115 110 166 257 181
182 243 172 162 170 151 309 298 81 154 138 137 139 147 143 157 152 163 154 153 160 155 157 132 140 148 127 156 149 178 156 188 161 112 127 179 101 157 47 230 180 22 112 175 274 224 197 221 245
202 175 157 121 137 120 85 322 330 113 126 136 138 152 154 162 167 158 152 157 165 148 116 135 133 127 147 99 95 144 161 160 171 137 138 139 133 139 160 272 346 117 182 185 198 226 233 171 220
175 113 76 69 37 34 110 236 347 122 137 139 143 157 165 167 176 146 147 156 144 118 127 134 125 137 155 141 171 188 100 157 189 135 228 157 155 153 179 197 221 203 214 213 223 167 207 197 168
256 101 81 62 51 45 357 23 311 315 171 147 149 164 175 175 170 150 142 148 139 132 131 124 133 140 127 167 163 186 139 159 160 151 116 71 128 359 81 182 194 199 218 215 181 243 264 323 144
292 107 110 91 112 64 359 340 234 164 290 143 158 171 182 178 161 149 138 147 137 134 138 137 142 143 172 176 207 225 145 189 142 140 126 127 105 70 109 95 106 128 162 197 173 173 217 233 195
277 196 84 55 73 112 93 311 289 299 276 177 159 178 180 171 159 147 144 145 135 141 148 158 140 163 172 193 258 270 146 149 144 138 126 111 88 66 124 102 97 89 81 51 37 40 113 158 78
268 80 63 141 127 115 114 274 282 283 263 260 167 181 186 171 166 154 147 149 132 147 155 149 152 158 172 184 247 280 113 115 128 127 129 117 96 90 103 90 93 94 83 49 33 38 17 71 37
267 279 131 125 146 116 167 184 247 264 272 71 205 182 191 176 160 157 157 147 142 150 151 161 144 160 146 168 198 172 123 130 123 128 124 120 115 65 111 130 115 113 98 78 39 22 57 34 23
266 259 125 130 170 102 198 227 195 234 267 304 306 197 188 175 164 165 157 150 154 157 161 160 152 148 174 179 198 187 131 157 136 133 115 101 93 61 81 108 117 119 100 77 58 43 28 44 27
268 261 146 156 178 62 178 282 256 194 107 293 270 236 190 178 170 171 164 157 159 161 166 158 160 160 173 202 149 347 76 110 82 84 103 115 134 127 110 107 99 125 108 101 88 58 71 102 358
264 266 169 170 163 189 184 268 200 178 184 201 234 246 189 180 169 172 165 164 162 165 164 150 160 166 195 177 190 192 148 144 191 145 150 168 174 165 130 114 91 109 123 106 113 109 96 131 170
253 268 272 162 170 162 205 246 247 205 183 215 211 229 194 181 173 173 169 167 163 164 167 157 155 172 209 182 219 208 162 158 142 140 146 167 210 202 134 129 121 117 110 126 117 101 77 89 132
248 264 280 179 202 265 211 206 201 190 227 193 207 198 182 177 176 172 174 167 163 167 167 165 155 180 195 189 219 230 179 142 132 139 151 174 181 183 151 125 134 140 138 136 136 127 108 109 102
252 247 279 334 38 235 274 283 185 192 191 190 232 187 180 176 173 171 175 174 164 169 171 169 166 176 190 186 193 216 221 157 143 172 160 173 172 189 176 145 146 148 148 152 149 151 151 138 147
251 223 197 188 216 246 264 249 218 193 151 195 211 218 177 175 177 176 178 178 175 170 173 172 173 174 183 184 189 207 192 169 150 193 180 179 183 185 176 162 158 167 158 159 164 165 184 178 202
252 256 222 225 206 244 261 273 45 141 132 121 129 197 173 162 194 184 180 176 177 168 174 173 174 178 180 185 171 205 185 180 197 210 208 161 179 182 174 170 173 172 167 167 177 188 192 185 206
217 227 258 257 209 231 284 44 316 44 88 174 180 197 163 180 188 190 179 177 178 171 172 172 173 178 180 182 181 187 197 189 201 235 228 227 160 157 162 178 181 178 173 181 186 201 204 190 210
245 243 239 175 196 192 216 269 183 187 250 307 340 116 131 118 212 196 180 180 177 174 168 172 174 178 179 185 181 183 197 194 189 213 230 245 166 189 173 183 186 189 187 190 193 208 213 202 216
227 235 201 179 254 257 142 274 211 131 243 40 69 105 92 58 40 73 177 173 173 176 168 174 173 178 181 183 185 189 184 197 195 201 221 230 216 171 194 178 190 194 194 195 200 213 196 206 218